Location: Kalberh�ni
(46.4610°N, 7.2453°E)
Time: 08:32:46
(UTC+00:00)

Cosmos 2322 - Visible Passes

Search period start: 28 October 2021 00:00
Search period end: 07 November 2021 00:00
Orbit: 840 x 855 km, 71.0° (Epoch: 27 October)

Date Brightness Start Highest point End Pass type
(mag) Time Alt. Az. Time Alt. Az. Time Alt. Az.
28 Oct 4.7 03:00:41 30° N 03:02:54 42° NE 03:08:16 10° SE visible
28 Oct 4.3 04:42:44 14° NW 04:46:57 34° WSW 04:51:58 10° SSW visible
28 Oct 3.9 17:52:25 10° S 17:57:55 51° ESE 18:02:40 14° NE visible
28 Oct 5.3 19:37:19 10° WSW 19:42:21 31° NW 19:44:40 23° NNW visible
29 Oct 4.7 02:49:20 42° NE 02:49:36 42° NE 02:54:56 10° SE visible
29 Oct 4.3 04:31:23 25° WNW 04:33:40 34° WSW 04:38:43 10° SSW visible
29 Oct 3.9 17:39:09 10° S 17:44:38 50° ESE 17:50:08 10° NE visible
29 Oct 5.3 19:23:59 10° WSW 19:29:02 31° NW 19:32:24 18° N visible
30 Oct 5.2 02:38:05 32° E 02:38:05 32° E 02:41:37 10° SE visible
30 Oct 4.2 04:20:08 35° W 04:20:22 35° WSW 04:25:27 10° S visible
30 Oct 3.9 17:25:52 10° S 17:31:20 49° ESE 17:36:50 10° NE visible
30 Oct 5.3 19:10:39 10° WSW 19:15:43 32° NW 19:19:57 14° N visible
31 Oct 5.9 02:26:52 17° ESE 02:26:52 17° ESE 02:28:17 10° SE visible
31 Oct 4.7 04:08:55 29° SW 04:08:55 29° SW 04:12:10 10° S visible
31 Oct 4.0 17:12:35 10° S 17:18:02 48° ESE 17:23:31 10° NE visible
31 Oct 5.3 18:57:19 10° WSW 19:02:25 32° NW 19:07:22 11° N visible
01 Nov 5.5 03:57:40 16° SSW 03:57:40 16° SSW 03:58:54 10° S visible
01 Nov 4.0 16:59:18 10° S 17:04:45 47° ESE 17:10:12 10° NE visible
01 Nov 5.3 18:44:00 10° WSW 18:49:06 33° NW 18:54:14 10° NNE visible
02 Nov 4.1 16:46:02 10° S 16:51:27 46° ESE 16:56:53 10° NE visible
02 Nov 5.3 18:30:39 10° WSW 18:35:47 33° NW 18:40:57 10° NNE visible
03 Nov 4.1 16:32:45 10° S 16:38:09 45° ESE 16:43:35 10° NE visible
03 Nov 5.2 18:17:19 10° WSW 18:22:29 34° NW 18:27:40 10° NNE visible
04 Nov 5.2 18:04:00 10° WSW 18:09:10 34° NW 18:14:22 10° NNE visible
05 Nov 5.2 17:50:40 10° WSW 17:55:52 35° NW 18:01:04 10° NNE visible
06 Nov 5.2 17:37:19 10° WSW 17:42:33 35° NW 17:47:47 10° NNE visible
